Location: Adavinekkalam
(16.6301°N, 80.7229°E)
Time: 15:40:54
(UTC+00:00)

Cosmos 2233 Rocket - Pass Details

Date: 15 May 2026
Orbit: 952 x 990 km, 82.9° (Epoch: 10 June)

Event Time Altitude Azimuth Distance (km) Brightness Sun altitude
Exits shadow 14:48:47 33° 176° (S) 1,581 4.8 -24.3°
Maximum altitude 14:51:49 81° 94° (E) 984 3.8 -24.9°
Drops below altitude 10° 14:57:59 10° 7° (N) 2,696 6.6 -26.2°
Sets 15:00:28 0° 6° (N) 3,638 7.3 -26.7°
